Location: Cantaing
(50.1487°N, 3.1675°E)
Time: 22:40:33
(UTC+00:00)

Cosmos 2082 Rocket - Pass Details

Date: 19 April 2026
Orbit: 831 x 853 km, 71.0° (Epoch: 19 May)

Event Time Altitude Azimuth Distance (km) Brightness Sun altitude
Exits shadow 23:47:16 15° 93° (E) 2,130 4.2 -28.4°
Drops below altitude 10° 23:50:05 10° 63° (ENE) 2,490 4.9 -28.4°
Sets 23:53:33 0° 42° (NE) 3,432 6.1 -28.4°
